Weather in Bayombong

Philippines     16°29′14″N   121°09′10″E
temp.,
°C
wind,
m/s
gust,
m/s
humid.,
%
clouds,
%
prec.,
mm/h
press.,
hPa
HPBL,
m
4 march, thu
thu423:00+19wnw019726 0.0 101723
02:00+20wnw119739 0.1 101530
05:00+19nnw019782 0.1 101523
08:00+21nne119259 0.1 1017240
11:00+26nne227139 0.5 1017869
14:00+28ene226630 1.6 10141009
17:00+24ne238712 0.7 1014401
20:00+21nnw01976 1.1 101623
5 march, fri
fri523:00+20ssw01984 0.1 101723
02:00+19nnw009923 0.1 101523
05:00+20ene019892 0.1 101528
08:00+22nne119270 0.3 1017229
11:00+27nne22615 0.1 10171081
14:00+28nne22542 0.1 10141058
17:00+25ne23750 0.1 1014663
20:00+20nw01960 0.1 101523
6 march, sat
sat623:00+19s01970 0.0 101623
02:00+19s019813 0.0 101524
05:00+20ne019585 0.0 101561
08:00+21ne119192 0.1 1017246
11:00+26ne226341 0.1 1017907
14:00+28ne225635 0.1 1014944
17:00+25nne227348 0.0 1014631
20:00+20wsw019424 0.0 101523
7 march, sun
sun723:00+19sw119613 0.0 101623
02:00+18sw119719 0.0 101523
05:00+18sw009737 0.0 101523
08:00+21nne118743 0.0 1016257
11:00+26nne226138 0.0 1016964
14:00+27ne335520 0.0 10131019
17:00+25ne237078 0.0 1013707
20:00+20nne119139 0.0 101523
8 march, mon
mon823:00+19nnw119326 0.0 101732
02:00+19n128858 0.0 1015145
05:00+19ne119292 0.1 101574
08:00+20ne128871 0.2 1017297
11:00+25ne246529 0.3 10171081
14:00+26ne346118 0.3 10141205
17:00+24ene247564 0.0 1014887
20:00+20ne129682 0.4 101646